2016 CW30

Initial reported observation by Mt. Lemmon Survey on 2016-02-05.
(Discoverer will be defined when the object is numbered. See this note on how discoverers are determined.)

Orbit

Orbit type: Apollo
Near-Earth Object
One opposition object seen prior.

Note: WebGL enabled browser required.

epoch2019-04-27.0
epoch JD2458600.5
perihelion date2019-10-24.55957
perihelion JD2458781.05957
argument of perihelion (°)202.81145
ascending node (°)7.05301
inclination (°)1.00506
eccentricity0.4548878
perihelion distance (AU)0.8018867
Tisserand w.r.t. Jupiter4.5
ΔV w.r.t. Earth (km/sec)6.0
semimajor axis (AU)1.4710487
mean anomaly (°)260.25669
mean daily motion (°/day)0.55241220
aphelion distance (AU)2.140
period (years)1.78
P-vector [x]-0.86721306
P-vector [y]-0.45410079
P-vector [z]-0.20428897
Q-vector [x]0.49793260
Q-vector [y]-0.78908499
Q-vector [z]-0.35973324
absolute magnitude26.7
phase slope0.15
uncertainty7
referenceMPO 365171
observations used52
oppositions1
arc length (days)6
first opposition used2016
last opposition used2016
residual rms (arc-secs)0.41
perturbers coarse indicatorM-v
perturbers precise indicator003Eh
first observation date used2016-02-05.0
last observation date used2016-02-11.0
computer nameMPCALB
JD of orbit computation2457430.140403
perihelion JD uncertainty (days)5.8557E-03
argument of perihelion uncertainty (°)8.0597E-03
ascending node uncertainty (°)9.1748E-03
inclination uncertainty (°)2.8976E-04
eccentricity uncertainty 2.2221E-04
perihelion distance uncertainty (AU)6.7215E-05
Minimum Orbit Intersection Distances (in AU)
for orbit epoch: 2458600.5, reference: MPO365171
Mercury0.36043
Venus0.08784
Earth0.01198
Mars0.00319
Jupiter2.81789
Saturn7.13722
Uranus17.283
Neptune27.7499

Observations

53 total observations over interval: 2016 02 05.35791 – 2016 02 11.45838
These data are available for download (format description).

Date (UT) J2000 RA J2000 Dec Magn Location Ref
2016 02 05.35791 09 35 32.82 +30 36 30.1 21.3 V G96 – Mt. Lemmon Survey MPS 679422
2016 02 05.36591 09 35 34.80 +30 37 10.3 21.4 V G96 – Mt. Lemmon Survey MPS 679422
2016 02 05.37392 09 35 36.78 +30 37 52.5   G96 – Mt. Lemmon Survey MPS 679422
2016 02 05.38191 09 35 38.73 +30 38 33.9 20.8 V G96 – Mt. Lemmon Survey MPS 679422
2016 02 05.41469 09 35 46.91 +30 41 22.7 21.1 V G96 – Mt. Lemmon Survey MPS 679422
2016 02 05.42112 09 35 48.57 +30 41 56.7 21.0 V G96 – Mt. Lemmon Survey MPS 679422
2016 02 05.42754 09 35 50.27 +30 42 29.5 21.2 V G96 – Mt. Lemmon Survey MPS 679422
2016 02 05.43396 09 35 51.98 +30 43 03.4 21.0 V G96 – Mt. Lemmon Survey MPS 679422
2016 02 06.22124 09 40 48.15 +32 01 29.6 20.7 R 926 – Tenagra II Observatory, Nogales MPS 679422
2016 02 06.22497 09 40 49.47 +32 01 54.9 20.7 R 926 – Tenagra II Observatory, Nogales MPS 679422
2016 02 06.22868 09 40 50.75 +32 02 20.6 20.9 R 926 – Tenagra II Observatory, Nogales MPS 679422
2016 02 06.30021 09 41 15.01 +32 10 33.3 21.0 V G96 – Mt. Lemmon Survey MPS 679422
2016 02 06.30269 09 41 15.85 +32 10 50.5 21.1 V G96 – Mt. Lemmon Survey MPS 679422
2016 02 06.30516 09 41 16.66 +32 11 07.7 21.7 V G96 – Mt. Lemmon Survey MPS 679422
2016 02 06.30763 09 41 17.49 +32 11 23.7 20.5 V G96 – Mt. Lemmon Survey MPS 679422
2016 02 06.38705 09 41 55.172 +32 20 59.29 21.1 w F51 – Pan-STARRS 1, Haleakala MPS 679422
2016 02 06.40818 09 42 02.509 +32 23 31.04 20.9 w F51 – Pan-STARRS 1, Haleakala MPS 679422
2016 02 06.41879 09 42 06.162 +32 24 46.90 21.3 w F51 – Pan-STARRS 1, Haleakala MPS 679422
2016 02 06.91159 09 45 59.58 +33 24 38.3 20.2 V 033 – Karl Schwarzschild Observatory, Tautenburg MPS 679422
2016 02 06.91396 09 46 00.64 +33 24 57.7 20.2 V 033 – Karl Schwarzschild Observatory, Tautenburg MPS 679422
2016 02 06.91632 09 46 01.74 +33 25 17.5 19.8 V 033 – Karl Schwarzschild Observatory, Tautenburg MPS 679422
2016 02 06.91869 09 46 02.81 +33 25 36.9 20.1 V 033 – Karl Schwarzschild Observatory, Tautenburg MPS 679422
2016 02 06.96715 09 46 25.01 +33 32 18.2 20.3 V 033 – Karl Schwarzschild Observatory, Tautenburg MPS 679422
2016 02 06.96953 09 46 26.07 +33 32 37.7 20.2 V 033 – Karl Schwarzschild Observatory, Tautenburg MPS 679422
2016 02 06.97190 09 46 27.17 +33 32 57.2 20.5 V 033 – Karl Schwarzschild Observatory, Tautenburg MPS 679422
2016 02 06.97426 09 46 28.26 +33 33 16.9 20.0 V 033 – Karl Schwarzschild Observatory, Tautenburg MPS 679422
2016 02 07.11549 09 47 35.63 +33 52 41.2 20.6 V 033 – Karl Schwarzschild Observatory, Tautenburg MPS 679422
2016 02 07.11786 09 47 36.81 +33 53 00.7 21.1 V 033 – Karl Schwarzschild Observatory, Tautenburg MPS 679422
2016 02 07.12022 09 47 37.96 +33 53 20.5 20.6 V 033 – Karl Schwarzschild Observatory, Tautenburg MPS 679422
2016 02 07.27883 09 49 21.82 +34 17 59.7 20.8 V I52 – Steward Observatory, Mt. Lemmon Station MPS 679422
2016 02 07.28100 09 49 22.90 +34 18 20.1 20.7 V I52 – Steward Observatory, Mt. Lemmon Station MPS 679422
2016 02 07.28318 09 49 24.05 +34 18 39.5 21.5 V I52 – Steward Observatory, Mt. Lemmon Station MPS 679422
2016 02 07.28535 09 49 25.09 +34 19 00.6 20.4 V I52 – Steward Observatory, Mt. Lemmon Station MPS 679422
2016 02 09.33618 10 23 07.46 +41 47 12.6 19.9 V I52 – Steward Observatory, Mt. Lemmon Station MPS 679422
2016 02 09.34123 10 23 14.78 +41 48 45.3 20.1 V I52 – Steward Observatory, Mt. Lemmon Station MPS 679422
2016 02 09.34835 10 23 25.35 +41 50 59.0 18.9 V I52 – Steward Observatory, Mt. Lemmon Station MPS 679422
2016 02 10.25186 10 58 15.20 +47 27 39.0 19.7 R 926 – Tenagra II Observatory, Nogales MPS 679422
2016 02 10.25402 10 58 21.68 +47 28 38.8 19.5 R 926 – Tenagra II Observatory, Nogales MPS 679422
2016 02 10.25617 10 58 28.13 +47 29 37.5 19.6 R 926 – Tenagra II Observatory, Nogales MPS 679422
2016 02 10.29815 11 00 36.17 +47 48 50.1 20.0 R 926 – Tenagra II Observatory, Nogales MPS 679422
2016 02 10.30138 11 00 46.29 +47 50 19.6 20.5 R 926 – Tenagra II Observatory, Nogales MPS 679422
2016 02 10.30463 11 00 56.30 +47 51 49.4 20.1 R 926 – Tenagra II Observatory, Nogales MPS 679422
2016 02 10.32951 11 02 14.05 +48 03 07.8 19.6 V I52 – Steward Observatory, Mt. Lemmon Station MPS 679422
2016 02 10.33008 11 02 15.85 +48 03 23.7 19.9 V I52 – Steward Observatory, Mt. Lemmon Station MPS 679422
2016 02 10.33382 11 02 27.56 +48 05 05.6 19.8 V I52 – Steward Observatory, Mt. Lemmon Station MPS 679422
2016 02 10.33428 11 02 29.02 +48 05 18.3 19.6 V I52 – Steward Observatory, Mt. Lemmon Station MPS 679422
2016 02 11.20146 12 15 26.82 +55 05 06.2   204 – Schiaparelli Observatory MPS 679422
2016 02 11.20584 12 15 58.51 +55 07 06.4 19.5 R 204 – Schiaparelli Observatory MPS 679422
2016 02 11.21123 12 16 37.73 +55 09 33.0   204 – Schiaparelli Observatory MPS 679422
2016 02 11.21557 12 17 09.36 +55 11 31.1   204 – Schiaparelli Observatory MPS 679422
2016 02 11.45546 12 51 19.49 +56 59 33.2 19.8 R 926 – Tenagra II Observatory, Nogales MPS 679422
2016 02 11.45692 12 51 32.61 +57 00 06.0 19.6 R 926 – Tenagra II Observatory, Nogales MPS 679422
2016 02 11.45838 12 51 45.73 +57 00 39.2 19.8 R 926 – Tenagra II Observatory, Nogales MPS 679422